[Iaude] MPEC B70: 2019 AQ14 [a=1.18,e=0.30,i=2.9,H=27.0]

mpec at mpcdb1.cfa.harvard.edu mpec at mpcdb1.cfa.harvard.edu
Fri Jan 25 16:31:16 EST 2019


M.P.E.C. 2019-B70                                Issued 2019 Jan. 25, 21:28 UT
 
     The Minor Planet Electronic Circulars contain information on unusual
         minor planets and routine data on comets.  They are published
    on behalf of Division F of the International Astronomical Union by the
          Minor Planet Center, Smithsonian Astrophysical Observatory,
                          Cambridge, MA 02138, U.S.A.

             Prepared using the Tamkin Foundation Computer Network

                              MPC at CFA.HARVARD.EDU
            URL https://www.minorplanetcenter.net/    ISSN 1523-6714


                                   2019 AQ14
 
Observations:
     K19A14Q  C2019 01 13.55903109 02 19.129+15 40 12.94         22.6 GVEB070F51
     K19A14Q  C2019 01 13.57058609 02 21.792+15 40 24.33         22.2 GVEB070F51
     K19A14Q  C2019 01 13.58208409 02 24.479+15 40 35.48         22.0 GVEB070F51
     K19A14Q* C2019 01 14.59658 09 07 24.508+15 59 58.73         21.9 wUEB070F51
     K19A14Q  C2019 01 14.61019 09 07 28.293+16 00 13.91         22.4 wUEB070F51
     K19A14Q  C2019 01 14.62379 09 07 32.096+16 00 28.79         22.4 wUEB070F51
     K19A14Q ^C2019 01 15.38028909 12 01.430+16 17 05.33         21.70GVEB070568
     K19A14Q ^C2019 01 15.38123809 12 01.734+16 17 06.79         21.83GVEB070568
     K19A14Q ^C2019 01 15.38218809 12 02.038+16 17 08.25         21.86GVEB070568
 
Observer details:
568 Mauna Kea.  Observers R. Wainscoat, L. Wells, S. Prunet.  Measurers
    R. Weryk, R. Wainscoat.  3.6-m Canada-France-Hawaii Telescope + CCD.
F51 Pan-STARRS 1, Haleakala.  Observers J. Bulger, K. Chambers, T. Lowe,
    E. Magnier, A. Schultz, M. Willman.  Measurers S. Chastel, M. Huber,
    Y. Ramanjooloo, R. Wainscoat, R. Weryk, K. Chambers, L. Denneau,
    J. Fairlamb, H. Flewelling, C.-C. Lin, E. Magnier.  1.8-m
    Ritchey-Chretien + CCD.
 
Orbital elements:
2019 AQ14                                                Earth MOID = 0.0103 AU
Epoch 2019 Apr. 27.0 TT = JDT 2458600.5                 MPC
M  26.47555              (2000.0)            P               Q
n   0.77315642     Peri.   85.95612     -0.92824571     +0.36911877
a   1.1756854      Node   115.70006     -0.35830084     -0.85411556
e   0.3041559      Incl.    2.92292     -0.09990202     -0.36638497
P   1.27           H   27.0           G   0.15           U   7
Residuals in seconds of arc
190113 F51  0.1-  0.0     190114 F51  0.0   0.0     190115 568  0.0   0.0
190113 F51  0.1-  0.0     190114 F51  0.1+  0.1+    190115 568  0.0   0.0
190113 F51  0.2+  0.0     190114 F51  0.1-  0.0     190115 568  0.0   0.0

Ephemeris:
2019 AQ14                a,e,i = 1.18, 0.30, 3                   q = 0.8181
Date    TT    R. A. (2000) Decl.     Delta      r     Elong.  Phase     V
2018 12 26    08 21 36.0 +13 53 53   0.1851  1.1462   149.1    26.2    24.8
...
2019 01 10    08 49 14.3 +14 51 01   0.09341 1.0708   158.4    19.8    23.0
...
2019 01 18    09 31 53.6 +17 32 03   0.05016 1.0303   157.5    21.4    21.6
...
2019 01 24    11 45 33.0 +22 25 45   0.02337 1.0003   132.8    46.2    20.6
2019 01 25    12 38 14.1 +22 30 17   0.02063 0.9954   121.7    57.3    20.6
2019 01 26    13 42 26.6 +21 09 07   0.01906 0.9904   107.7    71.3    20.9
...
2019 02 01    18 04 56.4 +01 09 24   0.03469 0.9615    46.0   132.5    25.6
...
2019 02 09    19 15 09.7 -06 03 32   0.07523 0.9250    33.9   143.5    28.6
...
2019 02 24    19 54 07.5 -09 26 25   0.1620  0.8667    37.6   135.9    29.1

A. U. Tomatic                (C) Copyright 2019 MPC           M.P.E.C. 2019-B70



More information about the Iaude mailing list